• In Deutschland
  • Länderverzeichnis
  • Für 7 Tage
  • Wassertemperatur
  • Satellitenkarten
  • Wetterkarte
  • Widgets
  • user-avatar
    Anmelden

    Stündliche Wetter Biskira

    Heute, 18 November, Samstag

    Zeit Temperatur Niederschläge Wind Luftdruck Luftfeuchtigkeit
    00:00 +15°C° 0 mm 1 m/S 754 mmHg 50%
    01:00 +14°C° 0 mm 1 m/S 754 mmHg 52%
    02:00 +14°C° 0 mm 1 m/S 754 mmHg 54%
    03:00 +12°C° 0 mm 0 m/S 754 mmHg 56%
    04:00 +12°C° 0 mm 0 m/S 754 mmHg 57%
    05:00 +12°C° 0 mm 0 m/S 754 mmHg 58%
    06:00 +12°C° 0 mm 1 m/S 754 mmHg 59%
    07:00 +14°C° 0 mm 1 m/S 754 mmHg 53%
    08:00 +16°C° 0 mm 1 m/S 754 mmHg 47%
    09:00 +18°C° 0 mm 1 m/S 755 mmHg 42%
    10:00 +19°C° 0 mm 1 m/S 754 mmHg 38%
    11:00 +19°C° 0 mm 2 m/S 754 mmHg 35%
    12:00 +20°C° 0 mm 2 m/S 754 mmHg 32%
    13:00 +20°C° 0 mm 2 m/S 754 mmHg 31%
    14:00 +20°C° 0 mm 2 m/S 753 mmHg 31%
    15:00 +21°C° 0 mm 2 m/S 753 mmHg 30%
    16:00 +20°C° 0 mm 2 m/S 754 mmHg 34%
    17:00 +18°C° 0 mm 2 m/S 754 mmHg 38%
    18:00 +17°C° 0 mm 2 m/S 754 mmHg 42%
    19:00 +17°C° 0 mm 2 m/S 754 mmHg 44%
    20:00 +17°C° 0 mm 2 m/S 755 mmHg 46%
    21:00 +16°C° 0 mm 2 m/S 755 mmHg 49%
    22:00 +16°C° 0 mm 2 m/S 755 mmHg 51%
    23:00 +15°C° 0 mm 2 m/S 755 mmHg 53%

    Morgen, 19 November, Sonntag

    Zeit Temperatur Niederschläge Wind Luftdruck Luftfeuchtigkeit
    00:00 +15°C° 0 mm 1 m/S 755 mmHg 55%
    01:00 +15°C° 0 mm 1 m/S 755 mmHg 56%
    02:00 +14°C° 0 mm 1 m/S 755 mmHg 57%
    03:00 +14°C° 0 mm 1 m/S 755 mmHg 58%
    04:00 +14°C° 0 mm 1 m/S 755 mmHg 59%
    05:00 +13°C° 0 mm 1 m/S 755 mmHg 59%
    06:00 +13°C° 0 mm 1 m/S 755 mmHg 60%
    07:00 +15°C° 0 mm 1 m/S 756 mmHg 55%
    08:00 +16°C° 0 mm 1 m/S 756 mmHg 50%
    09:00 +18°C° 0 mm 2 m/S 756 mmHg 45%
    10:00 +19°C° 0 mm 2 m/S 756 mmHg 41%
    11:00 +19°C° 0 mm 2 m/S 756 mmHg 38%
    12:00 +20°C° 0 mm 2 m/S 756 mmHg 34%
    13:00 +20°C° 0 mm 2 m/S 755 mmHg 33%
    14:00 +21°C° 0 mm 2 m/S 755 mmHg 31%
    15:00 +21°C° 0 mm 2 m/S 755 mmHg 30%
    16:00 +20°C° 0 mm 2 m/S 755 mmHg 33%
    17:00 +19°C° 0 mm 2 m/S 756 mmHg 36%
    18:00 +17°C° 0 mm 2 m/S 756 mmHg 39%
    19:00 +17°C° 0 mm 2 m/S 756 mmHg 41%
    20:00 +17°C° 0 mm 2 m/S 757 mmHg 42%
    21:00 +16°C° 0 mm 2 m/S 757 mmHg 43%
    22:00 +16°C° 0 mm 1 m/S 757 mmHg 44%
    23:00 +15°C° 0 mm 1 m/S 757 mmHg 45%

    übermorgen, 20 November, Montag

    Zeit Temperatur Niederschläge Wind Luftdruck Luftfeuchtigkeit
    00:00 +14°C° 0 mm 1 m/S 757 mmHg 46%
    01:00 +14°C° 0 mm 1 m/S 757 mmHg 47%
    02:00 +14°C° 0 mm 1 m/S 757 mmHg 48%
    03:00 +13°C° 0 mm 1 m/S 757 mmHg 48%
    04:00 +13°C° 0 mm 1 m/S 757 mmHg 48%
    05:00 +13°C° 0 mm 1 m/S 757 mmHg 48%
    06:00 +12°C° 0 mm 1 m/S 757 mmHg 47%
    07:00 +14°C° 0 mm 1 m/S 758 mmHg 42%
    08:00 +16°C° 0 mm 1 m/S 758 mmHg 37%
    09:00 +19°C° 0 mm 1 m/S 759 mmHg 32%
    10:00 +20°C° 0 mm 1 m/S 758 mmHg 31%
    11:00 +20°C° 0 mm 1 m/S 758 mmHg 29%
    12:00 +21°C° 0 mm 1 m/S 758 mmHg 28%
    13:00 +21°C° 0 mm 1 m/S 757 mmHg 27%
    14:00 +21°C° 0 mm 1 m/S 757 mmHg 27%
    15:00 +21°C° 0 mm 1 m/S 757 mmHg 26%
    16:00 +20°C° 0 mm 1 m/S 757 mmHg 30%
    17:00 +19°C° 0 mm 1 m/S 757 mmHg 33%
    18:00 +18°C° 0 mm 1 m/S 757 mmHg 37%
    19:00 +16°C° 0 mm 1 m/S 757 mmHg 38%
    20:00 +16°C° 0 mm 1 m/S 758 mmHg 39%
    21:00 +15°C° 0 mm 1 m/S 758 mmHg 40%
    22:00 +15°C° 0 mm 1 m/S 758 mmHg 42%
    23:00 +14°C° 0 mm 1 m/S 758 mmHg 44%

    21 November, Dienstag

    Zeit Temperatur Niederschläge Wind Luftdruck Luftfeuchtigkeit
    00:00 +14°C° 0 mm 1 m/S 758 mmHg 46%
    01:00 +13°C° 0 mm 1 m/S 758 mmHg 47%
    02:00 +12°C° 0 mm 0 m/S 757 mmHg 48%
    03:00 +12°C° 0 mm 0 m/S 757 mmHg 49%
    04:00 +12°C° 0 mm 1 m/S 757 mmHg 49%
    05:00 +12°C° 0 mm 1 m/S 757 mmHg 49%
    06:00 +12°C° 0 mm 1 m/S 757 mmHg 49%
    07:00 +14°C° 0 mm 1 m/S 757 mmHg 44%
    08:00 +15°C° 0 mm 0 m/S 757 mmHg 38%
    09:00 +16°C° 0 mm 0 m/S 758 mmHg 33%
    10:00 +19°C° 0 mm 1 m/S 757 mmHg 32%
    11:00 +20°C° 0 mm 1 m/S 757 mmHg 30%
    12:00 +21°C° 0 mm 1 m/S 756 mmHg 29%
    13:00 +21°C° 0 mm 1 m/S 756 mmHg 28%
    14:00 +21°C° 0 mm 1 m/S 756 mmHg 28%
    15:00 +21°C° 0 mm 1 m/S 756 mmHg 27%
    16:00 +20°C° 0 mm 1 m/S 756 mmHg 31%
    17:00 +18°C° 0 mm 1 m/S 756 mmHg 35%
    18:00 +15°C° 0 mm 0 m/S 756 mmHg 39%
    19:00 +15°C° 0 mm 0 m/S 756 mmHg 40%
    20:00 +14°C° 0 mm 0 m/S 756 mmHg 41%
    21:00 +14°C° 0 mm 0 m/S 756 mmHg 42%
    22:00 +13°C° 0 mm 0 m/S 756 mmHg 43%
    23:00 +13°C° 0 mm 0 m/S 756 mmHg 44%

    22 November, Mittwoch

    Zeit Temperatur Niederschläge Wind Luftdruck Luftfeuchtigkeit
    00:00 +12°C° 0 mm 0 m/S 756 mmHg 45%
    01:00 +12°C° 0 mm 0 m/S 755 mmHg 46%
    02:00 +12°C° 0 mm 0 m/S 755 mmHg 46%
    03:00 +11°C° 0 mm 0 m/S 755 mmHg 47%
    04:00 +11°C° 0 mm 0 m/S 755 mmHg 47%
    05:00 +11°C° 0 mm 0 m/S 755 mmHg 48%
    06:00 +10°C° 0 mm 0 m/S 755 mmHg 49%
    07:00 +13°C° 0 mm 0 m/S 755 mmHg 43%
    08:00 +15°C° 0 mm 0 m/S 756 mmHg 37%
    09:00 +17°C° 0 mm 0 m/S 756 mmHg 31%
    10:00 +19°C° 0 mm 1 m/S 756 mmHg 28%
    11:00 +20°C° 0 mm 1 m/S 755 mmHg 26%
    12:00 +20°C° 0 mm 2 m/S 755 mmHg 23%
    13:00 +20°C° 0 mm 2 m/S 755 mmHg 23%
    14:00 +20°C° 0 mm 2 m/S 754 mmHg 22%
    15:00 +20°C° 0 mm 2 m/S 754 mmHg 22%
    16:00 +19°C° 0 mm 2 m/S 754 mmHg 25%
    17:00 +19°C° 0 mm 1 m/S 755 mmHg 28%
    18:00 +16°C° 0 mm 1 m/S 755 mmHg 31%
    19:00 +16°C° 0 mm 1 m/S 755 mmHg 31%
    20:00 +16°C° 0 mm 1 m/S 756 mmHg 32%
    21:00 +15°C° 0 mm 1 m/S 756 mmHg 33%
    22:00 +15°C° 0 mm 1 m/S 756 mmHg 33%
    23:00 +15°C° 0 mm 1 m/S 756 mmHg 34%

    23 November, Donnerstag

    Zeit Temperatur Niederschläge Wind Luftdruck Luftfeuchtigkeit
    00:00 +14°C° 0 mm 1 m/S 756 mmHg 34%
    01:00 +14°C° 0 mm 1 m/S 756 mmHg 35%
    02:00 +14°C° 0 mm 1 m/S 755 mmHg 37%
    03:00 +14°C° 0 mm 1 m/S 755 mmHg 38%
    04:00 +14°C° 0 mm 1 m/S 756 mmHg 39%
    05:00 +14°C° 0 mm 1 m/S 756 mmHg 41%
    06:00 +14°C° 0 mm 1 m/S 756 mmHg 43%
    07:00 +15°C° 0 mm 1 m/S 756 mmHg 40%
    08:00 +18°C° 0 mm 1 m/S 757 mmHg 38%
    09:00 +19°C° 0 mm 1 m/S 757 mmHg 35%
    10:00 +20°C° 0 mm 1 m/S 757 mmHg 36%
    11:00 +20°C° 0 mm 1 m/S 756 mmHg 37%
    12:00 +21°C° 0 mm 1 m/S 756 mmHg 38%
    13:00 +21°C° 0 mm 1 m/S 756 mmHg 38%
    14:00 +21°C° 0 mm 1 m/S 756 mmHg 38%
    15:00 +21°C° 0 mm 1 m/S 756 mmHg 38%
    16:00 +20°C° 0 mm 1 m/S 756 mmHg 41%
    17:00 +19°C° 0 mm 2 m/S 757 mmHg 44%
    18:00 +18°C° 0 mm 2 m/S 757 mmHg 47%
    19:00 +18°C° 0 mm 1 m/S 757 mmHg 47%
    20:00 +18°C° 0 mm 1 m/S 757 mmHg 47%
    21:00 +15°C° 0 mm 0 m/S 757 mmHg 47%
    22:00 +16°C° 0 mm 1 m/S 757 mmHg 47%
    23:00 +16°C° 0 mm 1 m/S 757 mmHg 48%
    Mehr zeigen